Wetterdaten: Woche 04.01.10 - 10.01.10 (KW1)
Datum Zeit Temperatur Luftfeuchte Luftdruck Niederschlag Windrichtung Wind
04.01.2010 00:00 -9,1 C 91 % 1019,2 hPa 0,0 l/m N 0,0 km/h (0 Bft)
04.01.2010 01:00 -9,6 C 91 % 1018,8 hPa 0,0 l/m N 0,0 km/h (0 Bft)
04.01.2010 02:00 -10,0 C 91 % 1018,4 hPa 0,0 l/m N 0,0 km/h (0 Bft)
04.01.2010 03:00 -10,4 C 91 % 1017,9 hPa 0,0 l/m N 0,1 km/h (0 Bft)
04.01.2010 04:00 -10,7 C 91 % 1017,1 hPa 0,0 l/m N 0,3 km/h (0 Bft)
04.01.2010 05:00 -10,9 C 91 % 1016,7 hPa 0,0 l/m N-NO 1,9 km/h (1 Bft)
04.01.2010 06:00 -10,8 C 93 % 1016,6 hPa 0,0 l/m N-NO 2,4 km/h (1 Bft)
04.01.2010 07:00 -10,5 C 93 % 1016,7 hPa 0,0 l/m N 1,6 km/h (1 Bft)
04.01.2010 08:00 -10,6 C 92 % 1016,6 hPa 0,0 l/m N 0,7 km/h (0 Bft)
04.01.2010 09:00 -9,8 C 95 % 1016,6 hPa 0,0 l/m N-NO 2,1 km/h (1 Bft)
04.01.2010 10:00 -6,3 C 92 % 1016,5 hPa 0,0 l/m N-NO 3,3 km/h (1 Bft)
04.01.2010 11:00 -4,5 C 85 % 1015,9 hPa 0,2 l/m N-NO 5,2 km/h (1 Bft)
04.01.2010 12:00 -3,2 C 74 % 1015,1 hPa 0,0 l/m NO 6,5 km/h (2 Bft)
04.01.2010 13:00 -2,4 C 67 % 1014,3 hPa 0,0 l/m NO 5,9 km/h (2 Bft)
04.01.2010 14:00 -2,0 C 67 % 1013,8 hPa 0,0 l/m O-NO 3,9 km/h (1 Bft)
04.01.2010 15:00 -2,1 C 69 % 1013,8 hPa 0,0 l/m O-NO 4,9 km/h (1 Bft)
04.01.2010 16:00 -3,0 C 75 % 1013,9 hPa 0,0 l/m O-NO 4,8 km/h (1 Bft)
04.01.2010 17:00 -5,4 C 84 % 1014,0 hPa 0,0 l/m N 0,7 km/h (0 Bft)
04.01.2010 18:00 -6,9 C 88 % 1013,9 hPa 0,0 l/m N 0,3 km/h (0 Bft)
04.01.2010 19:00 -7,6 C 90 % 1013,6 hPa 0,0 l/m N 0,9 km/h (0 Bft)
04.01.2010 20:00 -8,2 C 91 % 1013,5 hPa 0,0 l/m N 0,5 km/h (0 Bft)
04.01.2010 21:00 -8,6 C 92 % 1013,5 hPa 0,0 l/m O-NO 0,8 km/h (0 Bft)
04.01.2010 22:00 -9,0 C 92 % 1013,1 hPa 0,0 l/m O-NO 1,9 km/h (1 Bft)
04.01.2010 23:00 -9,4 C 92 % 1012,7 hPa 0,0 l/m N 1,3 km/h (1 Bft)
05.01.2010 00:00 -9,8 C 92 % 1012,4 hPa 0,0 l/m O-NO 2,1 km/h (1 Bft)
05.01.2010 01:00 -9,9 C 93 % 1011,9 hPa 0,0 l/m O-NO 3,3 km/h (1 Bft)
05.01.2010 02:00 -9,9 C 93 % 1011,6 hPa 0,0 l/m O-NO 2,3 km/h (1 Bft)
05.01.2010 03:00 -10,2 C 92 % 1011,2 hPa 0,0 l/m O-NO 2,4 km/h (1 Bft)
05.01.2010 04:00 -10,4 C 92 % 1010,7 hPa 0,0 l/m O-NO 3,2 km/h (1 Bft)
05.01.2010 05:00 -10,3 C 93 % 1010,2 hPa 0,0 l/m O-NO 3,9 km/h (1 Bft)
05.01.2010 06:00 -8,7 C 95 % 1009,7 hPa 0,0 l/m NO 7,1 km/h (2 Bft)
05.01.2010 07:00 -7,4 C 93 % 1009,1 hPa 0,0 l/m O-NO 10,3 km/h (2 Bft)
05.01.2010 08:00 -7,4 C 92 % 1008,8 hPa 0,0 l/m O-NO 10,6 km/h (2 Bft)
05.01.2010 09:00 -7,2 C 92 % 1008,4 hPa 0,0 l/m O-NO 9,9 km/h (2 Bft)
05.01.2010 10:00 -6,8 C 91 % 1008,1 hPa 0,0 l/m NO 11,9 km/h (2 Bft)
05.01.2010 11:00 -6,3 C 90 % 1007,3 hPa 0,0 l/m O-NO 9,4 km/h (2 Bft)
05.01.2010 12:00 -5,9 C 89 % 1006,5 hPa 0,0 l/m O-NO 9,0 km/h (2 Bft)
05.01.2010 13:00 -6,0 C 89 % 1005,6 hPa 0,0 l/m O-NO 8,7 km/h (2 Bft)
05.01.2010 14:00 -5,6 C 88 % 1004,9 hPa 0,0 l/m O-NO 7,6 km/h (2 Bft)
05.01.2010 15:00 -5,9 C 88 % 1004,8 hPa 0,0 l/m O 7,6 km/h (2 Bft)
05.01.2010 16:00 -6,4 C 89 % 1004,8 hPa 0,0 l/m O 8,6 km/h (2 Bft)
05.01.2010 17:00 -6,7 C 90 % 1004,6 hPa 0,0 l/m O-NO 8,3 km/h (2 Bft)
05.01.2010 18:00 -6,6 C 91 % 1004,1 hPa 0,0 l/m O-NO 6,8 km/h (2 Bft)
05.01.2010 19:00 -6,5 C 91 % 1003,9 hPa 0,0 l/m O 9,5 km/h (2 Bft)
05.01.2010 20:00 -6,6 C 91 % 1003,5 hPa 0,0 l/m NO 7,8 km/h (2 Bft)
05.01.2010 21:00 -6,8 C 92 % 1003,3 hPa 0,0 l/m NO 7,4 km/h (2 Bft)
05.01.2010 22:00 -6,8 C 92 % 1003,0 hPa 0,0 l/m O-NO 5,7 km/h (1 Bft)
05.01.2010 23:00 -6,6 C 92 % 1002,6 hPa 0,0 l/m N-NO 5,3 km/h (1 Bft)
06.01.2010 00:00 -6,3 C 92 % 1002,2 hPa 0,0 l/m O 4,3 km/h (1 Bft)
06.01.2010 01:00 -6,2 C 92 % 1001,6 hPa 0,0 l/m O 2,3 km/h (1 Bft)
06.01.2010 02:00 -6,1 C 92 % 1001,6 hPa 0,0 l/m N 1,6 km/h (1 Bft)
06.01.2010 03:00 -6,0 C 92 % 1001,4 hPa 0,0 l/m O 1,7 km/h (1 Bft)
06.01.2010 04:00 -5,9 C 92 % 1001,4 hPa 0,0 l/m NW 3,1 km/h (1 Bft)
06.01.2010 05:00 -5,9 C 93 % 1001,0 hPa 0,0 l/m N-NO 3,2 km/h (1 Bft)
06.01.2010 06:00 -5,8 C 93 % 1001,5 hPa 0,0 l/m SW 3,1 km/h (1 Bft)
06.01.2010 07:00 -5,6 C 92 % 1001,6 hPa 0,0 l/m N 1,3 km/h (1 Bft)
06.01.2010 08:00 -5,4 C 92 % 1001,9 hPa 0,0 l/m W-SW 2,1 km/h (1 Bft)
06.01.2010 09:00 -5,1 C 92 % 1002,4 hPa 0,0 l/m SW 3,2 km/h (1 Bft)
06.01.2010 10:00 -4,6 C 91 % 1002,7 hPa 0,0 l/m SW 2,4 km/h (1 Bft)
06.01.2010 11:00 -4,0 C 90 % 1002,7 hPa 0,0 l/m S-SW 7,8 km/h (2 Bft)
06.01.2010 12:00 -3,5 C 89 % 1002,5 hPa 0,0 l/m S-SW 6,0 km/h (2 Bft)
06.01.2010 13:00 -3,0 C 87 % 1002,4 hPa 0,0 l/m S-SW 6,7 km/h (2 Bft)
06.01.2010 14:00 -2,7 C 88 % 1002,5 hPa 0,0 l/m S-SW 4,4 km/h (1 Bft)
06.01.2010 15:00 -2,7 C 89 % 1002,8 hPa 0,0 l/m SW 6,0 km/h (2 Bft)
06.01.2010 16:00 -2,8 C 90 % 1003,2 hPa 0,0 l/m SW 3,9 km/h (1 Bft)
06.01.2010 17:00 -3,1 C 91 % 1003,5 hPa 0,0 l/m S-SW 4,0 km/h (1 Bft)
06.01.2010 18:00 -3,2 C 92 % 1003,8 hPa 0,0 l/m SW 3,6 km/h (1 Bft)
06.01.2010 19:00 -3,3 C 93 % 1004,2 hPa 0,0 l/m SW 3,3 km/h (1 Bft)
06.01.2010 20:00 -3,3 C 93 % 1004,6 hPa 0,0 l/m SW 2,4 km/h (1 Bft)
06.01.2010 21:00 -3,5 C 93 % 1004,9 hPa 0,0 l/m N 0,3 km/h (0 Bft)
06.01.2010 22:00 -3,8 C 93 % 1005,0 hPa 0,0 l/m N 1,7 km/h (1 Bft)
06.01.2010 23:00 -4,6 C 92 % 1005,5 hPa 0,0 l/m N 1,2 km/h (1 Bft)
07.01.2010 00:00 -5,0 C 93 % 1005,3 hPa 0,0 l/m N 0,4 km/h (0 Bft)
07.01.2010 01:00 -4,9 C 95 % 1005,7 hPa 0,0 l/m N 0,3 km/h (0 Bft)
07.01.2010 02:00 -4,8 C 94 % 1006,3 hPa 0,0 l/m N 0,1 km/h (0 Bft)
07.01.2010 03:00 -4,9 C 94 % 1006,5 hPa 0,0 l/m N 0,4 km/h (0 Bft)
07.01.2010 04:00 -4,6 C 95 % 1006,9 hPa 0,0 l/m N 0,0 km/h (0 Bft)
07.01.2010 05:00 -4,8 C 94 % 1007,0 hPa 0,0 l/m N 0,3 km/h (0 Bft)
07.01.2010 06:00 -6,0 C 92 % 1007,2 hPa 0,0 l/m N 0,1 km/h (0 Bft)
07.01.2010 07:00 -6,7 C 94 % 1007,7 hPa 0,0 l/m N 0,4 km/h (0 Bft)
07.01.2010 08:00 -6,2 C 96 % 1008,5 hPa 0,0 l/m N 0,5 km/h (0 Bft)
07.01.2010 09:00 -5,3 C 97 % 1008,9 hPa 0,0 l/m N 1,1 km/h (0 Bft)
07.01.2010 10:00 -4,3 C 97 % 1009,4 hPa 0,0 l/m S-SW 1,6 km/h (1 Bft)
07.01.2010 11:00 -3,7 C 95 % 1009,1 hPa 0,0 l/m N 0,7 km/h (0 Bft)
07.01.2010 12:00 -1,8 C 87 % 1009,0 hPa 0,0 l/m S 2,4 km/h (1 Bft)
07.01.2010 13:00 -0,9 C 82 % 1008,5 hPa 0,0 l/m O-SO 3,1 km/h (1 Bft)
07.01.2010 14:00 -0,6 C 79 % 1008,3 hPa 0,0 l/m O-SO 2,5 km/h (1 Bft)
07.01.2010 15:00 -0,7 C 80 % 1008,9 hPa 0,0 l/m O-SO 2,3 km/h (1 Bft)
07.01.2010 16:00 -0,9 C 82 % 1009,3 hPa 0,0 l/m N 0,1 km/h (0 Bft)
07.01.2010 17:00 -1,6 C 85 % 1010,0 hPa 0,0 l/m N 0,0 km/h (0 Bft)
07.01.2010 18:00 -2,6 C 87 % 1010,3 hPa 0,0 l/m N 0,0 km/h (0 Bft)
07.01.2010 19:00 -3,1 C 90 % 1010,7 hPa 0,0 l/m N 2,9 km/h (1 Bft)
07.01.2010 20:00 -3,3 C 91 % 1010,9 hPa 0,0 l/m N 2,0 km/h (1 Bft)
07.01.2010 21:00 -3,8 C 91 % 1011,0 hPa 0,0 l/m N 3,2 km/h (1 Bft)
07.01.2010 22:00 -4,0 C 93 % 1011,3 hPa 0,0 l/m N 3,5 km/h (1 Bft)
07.01.2010 23:00 -4,0 C 93 % 1011,4 hPa 0,0 l/m N 5,7 km/h (1 Bft)
08.01.2010 00:00 -3,8 C 94 % 1011,3 hPa 0,0 l/m N 5,7 km/h (1 Bft)
08.01.2010 01:00 -3,7 C 93 % 1010,8 hPa 0,0 l/m N-NO 8,6 km/h (2 Bft)
08.01.2010 02:00 -3,5 C 93 % 1010,8 hPa 0,0 l/m NO 12,2 km/h (2 Bft)
08.01.2010 03:00 -3,3 C 93 % 1010,7 hPa 0,0 l/m N-NO 8,4 km/h (2 Bft)
08.01.2010 04:00 -3,2 C 94 % 1010,8 hPa 0,2 l/m NO 10,5 km/h (2 Bft)
08.01.2010 05:00 -3,5 C 94 % 1010,3 hPa 0,6 l/m N-NO 13,3 km/h (3 Bft)
08.01.2010 06:00 -3,7 C 94 % 1010,0 hPa 0,4 l/m NO 16,1 km/h (3 Bft)
08.01.2010 07:00 -3,9 C 95 % 1009,9 hPa 0,4 l/m O-NO 16,0 km/h (3 Bft)
08.01.2010 08:00 -4,1 C 95 % 1009,6 hPa 0,8 l/m N-NO 14,2 km/h (3 Bft)
08.01.2010 09:00 -4,1 C 95 % 1008,9 hPa 0,2 l/m N-NO 14,8 km/h (3 Bft)
08.01.2010 10:00 -3,7 C 94 % 1008,4 hPa 0,0 l/m O-NO 19,3 km/h (3 Bft)
08.01.2010 11:00 -3,5 C 93 % 1007,9 hPa 0,0 l/m NO 19,3 km/h (3 Bft)
08.01.2010 12:00 -3,4 C 93 % 1006,9 hPa 0,0 l/m O-NO 18,9 km/h (3 Bft)
08.01.2010 13:00 -3,3 C 94 % 1005,9 hPa 0,0 l/m NO 21,2 km/h (4 Bft)
08.01.2010 14:00 -3,3 C 94 % 1005,6 hPa 0,0 l/m NO 23,3 km/h (4 Bft)
08.01.2010 15:00 -3,5 C 95 % 1005,4 hPa 0,0 l/m O-NO 24,1 km/h (4 Bft)
08.01.2010 16:00 -3,7 C 95 % 1005,3 hPa 0,0 l/m O-NO 22,0 km/h (4 Bft)
08.01.2010 17:00 -3,7 C 95 % 1005,3 hPa 0,0 l/m NO 21,4 km/h (4 Bft)
08.01.2010 18:00 -3,8 C 95 % 1005,3 hPa 0,0 l/m O-NO 19,3 km/h (3 Bft)
08.01.2010 19:00 -3,9 C 95 % 1005,5 hPa 0,0 l/m NO 18,6 km/h (3 Bft)
08.01.2010 20:00 -4,0 C 95 % 1005,9 hPa 0,0 l/m O-NO 17,2 km/h (3 Bft)
08.01.2010 21:00 -4,0 C 96 % 1006,2 hPa 0,0 l/m NO 14,0 km/h (3 Bft)
08.01.2010 22:00 -4,0 C 96 % 1006,0 hPa 0,2 l/m O-NO 10,8 km/h (2 Bft)
08.01.2010 23:00 -4,0 C 95 % 1006,1 hPa 0,2 l/m NO 15,3 km/h (3 Bft)
09.01.2010 00:00 -4,4 C 94 % 1006,3 hPa 0,0 l/m N-NO 14,4 km/h (3 Bft)
09.01.2010 01:00 -4,7 C 94 % 1006,3 hPa 0,0 l/m NO 15,6 km/h (3 Bft)
09.01.2010 02:00 -5,1 C 94 % 1006,4 hPa 0,0 l/m NO 15,0 km/h (3 Bft)
09.01.2010 03:00 -5,5 C 93 % 1006,6 hPa 0,0 l/m N-NO 13,6 km/h (3 Bft)
09.01.2010 04:00 -5,7 C 93 % 1006,6 hPa 0,0 l/m N-NO 9,4 km/h (2 Bft)
09.01.2010 05:00 -5,8 C 94 % 1006,1 hPa 0,0 l/m O-NO 10,1 km/h (2 Bft)
09.01.2010 06:00 -5,9 C 94 % 1006,1 hPa 0,0 l/m NO 10,7 km/h (2 Bft)
09.01.2010 07:00 -5,9 C 95 % 1005,5 hPa 0,0 l/m NO 10,1 km/h (2 Bft)
09.01.2010 08:00 -5,9 C 95 % 1005,7 hPa 0,0 l/m O-NO 12,8 km/h (3 Bft)
09.01.2010 09:00 -5,8 C 96 % 1005,9 hPa 0,0 l/m O-NO 12,2 km/h (2 Bft)
09.01.2010 10:00 -5,5 C 96 % 1005,7 hPa 0,0 l/m O-NO 12,2 km/h (2 Bft)
09.01.2010 11:00 -5,3 C 95 % 1005,5 hPa 0,0 l/m NO 12,6 km/h (3 Bft)
09.01.2010 12:00 -5,3 C 95 % 1005,4 hPa 0,0 l/m NO 14,8 km/h (3 Bft)
09.01.2010 13:00 -5,3 C 95 % 1004,6 hPa 0,0 l/m N-NO 16,9 km/h (3 Bft)
09.01.2010 14:00 -5,3 C 95 % 1004,4 hPa 0,0 l/m O-NO 15,4 km/h (3 Bft)
09.01.2010 15:00 -5,3 C 95 % 1004,8 hPa 0,0 l/m O-NO 14,4 km/h (3 Bft)
09.01.2010 16:00 -5,3 C 95 % 1005,0 hPa 0,0 l/m NO 15,2 km/h (3 Bft)
09.01.2010 17:00 -5,3 C 95 % 1004,9 hPa 0,0 l/m NO 10,7 km/h (2 Bft)
09.01.2010 18:00 -5,3 C 95 % 1005,2 hPa 0,0 l/m N-NO 7,5 km/h (2 Bft)
09.01.2010 19:00 -5,1 C 95 % 1005,5 hPa 0,0 l/m NO 7,9 km/h (2 Bft)
09.01.2010 20:00 -5,1 C 96 % 1005,6 hPa 0,0 l/m N-NO 7,4 km/h (2 Bft)
09.01.2010 21:00 -4,9 C 96 % 1005,7 hPa 0,4 l/m N-NO 4,4 km/h (1 Bft)
09.01.2010 22:00 -4,8 C 96 % 1005,8 hPa 0,6 l/m N-NO 4,4 km/h (1 Bft)
09.01.2010 23:00 -4,8 C 95 % 1006,4 hPa 0,2 l/m N-NO 3,2 km/h (1 Bft)
10.01.2010 00:00 -4,8 C 95 % 1006,5 hPa 0,0 l/m N-NO 3,2 km/h (1 Bft)
10.01.2010 01:00 -4,8 C 94 % 1006,7 hPa 0,0 l/m N-NO 3,5 km/h (1 Bft)
10.01.2010 02:00 -4,8 C 94 % 1007,4 hPa 0,0 l/m N-NO 2,8 km/h (1 Bft)
10.01.2010 03:00 -4,8 C 94 % 1008,0 hPa 0,0 l/m N 2,3 km/h (1 Bft)
10.01.2010 04:00 -4,8 C 94 % 1008,2 hPa 0,0 l/m N-NO 2,8 km/h (1 Bft)
10.01.2010 05:00 -4,9 C 94 % 1008,6 hPa 0,0 l/m N 2,0 km/h (1 Bft)
10.01.2010 06:00 -4,9 C 94 % 1009,1 hPa 0,0 l/m N 1,9 km/h (1 Bft)
10.01.2010 07:00 -5,1 C 93 % 1009,6 hPa 0,0 l/m N 2,1 km/h (1 Bft)
10.01.2010 08:00 -5,0 C 93 % 1010,4 hPa 0,0 l/m N 0,5 km/h (0 Bft)
10.01.2010 09:00 -4,7 C 93 % 1011,2 hPa 0,0 l/m N 1,1 km/h (0 Bft)
10.01.2010 10:00 -4,1 C 91 % 1011,9 hPa 0,0 l/m N 1,6 km/h (1 Bft)
10.01.2010 11:00 -3,4 C 87 % 1012,5 hPa 0,0 l/m W-NW 2,4 km/h (1 Bft)
10.01.2010 12:00 -3,0 C 85 % 1012,9 hPa 0,0 l/m W-NW 4,3 km/h (1 Bft)
10.01.2010 13:00 -2,7 C 84 % 1012,9 hPa 0,0 l/m W-SW 7,2 km/h (2 Bft)
10.01.2010 14:00 -3,1 C 84 % 1013,0 hPa 0,0 l/m W-SW 10,8 km/h (2 Bft)
10.01.2010 15:00 -3,1 C 84 % 1013,4 hPa 0,0 l/m W-NW 7,5 km/h (2 Bft)
10.01.2010 16:00 -3,4 C 85 % 1014,0 hPa 0,0 l/m W-SW 5,1 km/h (1 Bft)
10.01.2010 17:00 -3,9 C 88 % 1014,4 hPa 0,0 l/m SW 4,8 km/h (1 Bft)
10.01.2010 18:00 -4,1 C 89 % 1015,0 hPa 0,0 l/m W-SW 4,4 km/h (1 Bft)
10.01.2010 19:00 -4,2 C 89 % 1015,3 hPa 0,0 l/m W 4,1 km/h (1 Bft)
10.01.2010 20:00 -4,3 C 89 % 1015,6 hPa 0,0 l/m W 3,6 km/h (1 Bft)
10.01.2010 21:00 -4,5 C 89 % 1016,0 hPa 0,0 l/m W 2,9 km/h (1 Bft)
10.01.2010 22:00 -4,7 C 89 % 1016,1 hPa 0,0 l/m N 1,7 km/h (1 Bft)
10.01.2010 23:00 -4,8 C 90 % 1016,0 hPa 0,0 l/m N 1,2 km/h (1 Bft)
Min-Datum _ 04.01.10 04.01.10 06.01.10 - - 04.01.10
_ Min-Zeit 05:20 13:20 05:30 - - 00:00
Minimum _ -10,9 C 66 % 1000,7 hPa - - 0,0 km/h (0 Bft)
Max-Datum _ 07.01.10 08.01.10 04.01.10 08.01.10 - 08.01.10
_ Max-Zeit 13:50 00:50 00:00 08:00 - 14:40
Maximum _ -0,2 C 100 % 1019,5 hPa 0,8 l/m - 29,0 km/h
O-NO (5 Bft)
Durchschnitt _ -5,2 C 91 % 1008,5 hPa #4,4 l/m O-NO 6,4 km/h (2 Bft)